Regional Weather Roundup
Issued by NWS Little Rock, AR

Home | Current Version | Previous Version | Text Only | Print | Product List | Glossary Off
Versions: 1 2 3 4 5 6 7 8 9 10 11 12 13 14 15 16 17 18 19 20 21 22 23 24 25 26 27 28 29 30 31

000
ASUS44 KLZK 101505
RWRLZK

WEATHER ROUNDUP FOR ARKANSAS
NATIONAL WEATHER SERVICE LITTLE ROCK AR
900 AM CST SUN DEC 10 2017

NOTE: "FAIR" INDICATES FEW OR NO CLOUDS BELOW 12,000 FEET WITH NO
SIGNIFICANT WEATHER AND/OR OBSTRUCTIONS TO VISIBILITY.

ARZ001-003-010-029-101600-
NORTHWEST ARKANSAS

CITY           SKY/WX    TMP DP  RH WIND       PRES   REMARKS
FAYETTEVILLE   SUNNY     43  29  57 S8        30.22F
FORT SMITH     SUNNY     34  28  79 CALM      30.29S
HARRISON       SUNNY     49  22  34 W14G23    30.16F
BENTONVILLE    SUNNY     37  25  61 SW9       30.23S
ROGERS         SUNNY     40  24  53 W13       30.21R
SILOAM SPGS    SUNNY     41  27  57 SW12      30.23R
HIGHFILL       SUNNY     40  25  55 SW13      30.21S
SPRINGDALE     SUNNY     41  25  52 SW12      30.22F
$$

ARZ004-005-016-101600-
NORTH CENTRAL ARKANSAS

CITY           SKY/WX    TMP DP  RH WIND       PRES   REMARKS
BATESVILLE     SUNNY     42  25  50 SW14      30.25F
FLIPPIN        SUNNY     32  24  72 E3        30.19
MTN HOME       SUNNY     34  22  61 SW5       30.17F WCI  30
$$

ARZ040-041-101600-
WEST CENTRAL ARKANSAS

CITY           SKY/WX    TMP DP  RH WIND       PRES   REMARKS
MENA           SUNNY     43  32  65 CALM      30.31R
MOUNT IDA      SUNNY     33  27  78 CALM      30.29S
$$

ARZ009-017-025-026-028-101600-
NORTHEAST ARKANSAS

CITY           SKY/WX    TMP DP  RH WIND       PRES   REMARKS
CORNING        FAIR      34  27  75 SW14      30.24F WCI  24
JONESBORO      SUNNY     37  26  64 SW14      30.27S
NEWPORT        SUNNY     34  27  75 S12       30.28S WCI  25
WALNUT RIDGE   SUNNY     35  26  69 S12       30.25S WCI  27
BLYTHEVILLE    SUNNY     34  27  75 SW8       30.28S WCI  27
$$

ARZ022-023-033-042-044-101600-
CENTRAL ARKANSAS

CITY           SKY/WX    TMP DP  RH WIND       PRES   REMARKS
LITTLE ROCK    SUNNY     37  26  64 W7        30.33R
N LITTLE ROCK    N/A     43  27  53 W6        30.34R
JACKSONVILLE   SUNNY     33  25  72 CALM      30.30R
SEARCY         SUNNY     35  30  82 S3        30.31S
HOT SPRINGS    SUNNY     36  30  79 CALM      30.32S
RUSSELLVILLE   MOSUNNY   32  27  81 CALM      30.29S
CLINTON        FAIR      27  23  86 CALM      30.28F
$$

ARZ036-101600-
EAST ARKANSAS

CITY           SKY/WX    TMP DP  RH WIND       PRES   REMARKS
WEST MEMPHIS   SUNNY     36  27  69 VRB5      30.30R
$$

ARZ050-053-066-070-073-101600-
SOUTHWEST ARKANSAS

CITY           SKY/WX    TMP DP  RH WIND       PRES   REMARKS
ARKADELPHIA    FAIR      35  29  78 CALM      30.37R
CAMDEN         SUNNY     39  28  65 CALM      30.38R
TEXARKANA      SUNNY     38  29  70 SW8       30.37R
EL DORADO      SUNNY     37  33  85 S3        30.38R
DE QUEEN       SUNNY     30  30 100 CALM      30.36R
$$

ARZ056-057-069-101600-
SOUTHEAST ARKANSAS

CITY           SKY/WX    TMP DP  RH WIND       PRES   REMARKS
STUTTGART      SUNNY     39  30  70 SW7       30.33R
MONTICELLO     SUNNY     45  26  47 SW6       30.36S

$$






USA.gov is the U.S. government's official web portal to all federal, state and local government web resources and services.